Year,Month,Day,Hour,Minute,Value (Times are PST for temperature in C)
2013,04,22,00,00,4.70
2013,04,22,00,01,4.70
2013,04,22,00,02,4.70
2013,04,22,00,03,4.70
2013,04,22,00,04,4.70
2013,04,22,00,05,4.70
2013,04,22,00,06,4.70
2013,04,22,00,07,4.60
2013,04,22,00,08,4.60
2013,04,22,00,09,4.60
2013,04,22,00,10,4.60
2013,04,22,00,11,4.60
2013,04,22,00,12,4.60
2013,04,22,00,13,4.60
2013,04,22,00,14,4.60
2013,04,22,00,15,4.50
2013,04,22,00,16,4.50
2013,04,22,00,17,4.50
2013,04,22,00,18,4.40
2013,04,22,00,19,4.40
2013,04,22,00,20,4.40
2013,04,22,00,21,4.40
2013,04,22,00,22,4.40
2013,04,22,00,23,4.40
2013,04,22,00,24,4.30
2013,04,22,00,25,4.30
2013,04,22,00,26,4.30
2013,04,22,00,27,4.30
2013,04,22,00,28,4.30
2013,04,22,00,29,4.30
2013,04,22,00,30,4.30
2013,04,22,00,31,4.30
2013,04,22,00,32,4.30
2013,04,22,00,33,4.30
2013,04,22,00,34,4.30
2013,04,22,00,35,4.30
2013,04,22,00,36,4.30
2013,04,22,00,37,4.30
2013,04,22,00,38,4.30
2013,04,22,00,39,4.30
2013,04,22,00,40,4.30
2013,04,22,00,41,4.30
2013,04,22,00,42,4.20
2013,04,22,00,43,4.20
2013,04,22,00,44,4.20
2013,04,22,00,45,4.20
2013,04,22,00,46,4.20
2013,04,22,00,47,4.20
2013,04,22,00,48,4.10
2013,04,22,00,49,4.10
2013,04,22,00,50,4.10
2013,04,22,00,51,4.00
2013,04,22,00,52,4.00
2013,04,22,00,53,3.90
2013,04,22,00,54,3.90
2013,04,22,00,55,3.90
2013,04,22,00,56,3.90
2013,04,22,00,57,3.90
2013,04,22,00,58,3.90
2013,04,22,00,59,3.80
2013,04,22,01,00,3.80
2013,04,22,01,01,3.80
2013,04,22,01,02,3.80
2013,04,22,01,03,3.80
2013,04,22,01,04,3.80
2013,04,22,01,05,3.90
2013,04,22,01,06,3.90
2013,04,22,01,07,3.90
2013,04,22,01,08,3.90
2013,04,22,01,09,3.90
2013,04,22,01,10,3.80
2013,04,22,01,11,3.80
2013,04,22,01,12,3.80
2013,04,22,01,13,3.80
2013,04,22,01,14,3.80
2013,04,22,01,15,3.80
2013,04,22,01,16,3.80
2013,04,22,01,17,3.80
2013,04,22,01,18,3.80
2013,04,22,01,19,3.80
2013,04,22,01,20,3.80
2013,04,22,01,21,3.80
2013,04,22,01,22,3.80
2013,04,22,01,23,3.80
2013,04,22,01,24,3.80
2013,04,22,01,25,3.80
2013,04,22,01,26,3.80
2013,04,22,01,27,3.80
2013,04,22,01,28,3.80
2013,04,22,01,29,3.80
2013,04,22,01,30,3.80
2013,04,22,01,31,3.80
2013,04,22,01,32,3.80
2013,04,22,01,33,3.80
2013,04,22,01,34,3.80
2013,04,22,01,35,3.80
2013,04,22,01,36,3.80
2013,04,22,01,37,3.70
2013,04,22,01,38,3.70
2013,04,22,01,39,3.70
2013,04,22,01,40,3.60
2013,04,22,01,41,3.60
2013,04,22,01,42,3.50
2013,04,22,01,43,3.50
2013,04,22,01,44,3.40
2013,04,22,01,45,3.40
2013,04,22,01,46,3.30
2013,04,22,01,47,3.30
2013,04,22,01,48,3.30
2013,04,22,01,49,3.30
2013,04,22,01,50,3.30
2013,04,22,01,51,3.30
2013,04,22,01,52,3.20
2013,04,22,01,53,3.20
2013,04,22,01,54,3.20
2013,04,22,01,55,3.20
2013,04,22,01,56,3.20
2013,04,22,01,57,3.20
2013,04,22,01,58,3.30
2013,04,22,01,59,3.30
2013,04,22,02,00,3.30
2013,04,22,02,01,3.30
2013,04,22,02,02,3.30
2013,04,22,02,03,3.30
2013,04,22,02,04,3.30
2013,04,22,02,05,3.30
2013,04,22,02,06,3.30
2013,04,22,02,07,3.30
2013,04,22,02,08,3.30
2013,04,22,02,09,3.40
2013,04,22,02,10,3.40
2013,04,22,02,11,3.40
2013,04,22,02,12,3.40
2013,04,22,02,13,3.40
2013,04,22,02,14,3.40
2013,04,22,02,15,3.40
2013,04,22,02,16,3.30
2013,04,22,02,17,3.30
2013,04,22,02,18,3.30
2013,04,22,02,19,3.30
2013,04,22,02,20,3.30
2013,04,22,02,21,3.30
2013,04,22,02,22,3.30
2013,04,22,02,23,3.30
2013,04,22,02,24,3.20
2013,04,22,02,25,3.20
2013,04,22,02,26,3.20
2013,04,22,02,27,3.20
2013,04,22,02,28,3.20
2013,04,22,02,29,3.20
2013,04,22,02,30,3.20
2013,04,22,02,31,3.20
2013,04,22,02,32,3.20
2013,04,22,02,33,3.10
2013,04,22,02,34,3.10
2013,04,22,02,35,3.10
2013,04,22,02,36,3.10
2013,04,22,02,37,3.20
2013,04,22,02,38,3.20
2013,04,22,02,39,3.20
2013,04,22,02,40,3.20
2013,04,22,02,41,3.20
2013,04,22,02,42,3.20
2013,04,22,02,43,3.20
2013,04,22,02,44,3.20
2013,04,22,02,45,3.20
2013,04,22,02,46,3.20
2013,04,22,02,47,3.20
2013,04,22,02,48,3.20
2013,04,22,02,49,3.20
2013,04,22,02,50,3.10
2013,04,22,02,51,3.10
2013,04,22,02,52,3.10
2013,04,22,02,53,3.00
2013,04,22,02,54,3.00
2013,04,22,02,55,3.00
2013,04,22,02,56,3.00
2013,04,22,02,57,2.90
2013,04,22,02,58,2.90
2013,04,22,02,59,2.90
2013,04,22,03,00,2.90
2013,04,22,03,01,2.90
2013,04,22,03,02,2.90
2013,04,22,03,03,2.90
2013,04,22,03,04,2.80
2013,04,22,03,05,2.80
2013,04,22,03,06,2.80
2013,04,22,03,07,2.80
2013,04,22,03,08,2.80
2013,04,22,03,09,2.80
2013,04,22,03,10,2.90
2013,04,22,03,11,2.90
2013,04,22,03,12,2.90
2013,04,22,03,13,2.90
2013,04,22,03,14,2.90
2013,04,22,03,15,2.90
2013,04,22,03,16,2.90
2013,04,22,03,17,2.90
2013,04,22,03,18,2.90
2013,04,22,03,19,2.90
2013,04,22,03,20,2.90
2013,04,22,03,21,2.90
2013,04,22,03,22,2.90
2013,04,22,03,23,2.90
2013,04,22,03,24,2.80
2013,04,22,03,25,2.80
2013,04,22,03,26,2.80
2013,04,22,03,27,2.80
2013,04,22,03,28,2.80
2013,04,22,03,29,2.80
2013,04,22,03,30,2.80
2013,04,22,03,31,2.80
2013,04,22,03,32,2.80
2013,04,22,03,33,2.80
2013,04,22,03,34,2.80
2013,04,22,03,35,2.80
2013,04,22,03,36,2.80
2013,04,22,03,37,2.80
2013,04,22,03,38,2.80
2013,04,22,03,39,2.80
2013,04,22,03,40,2.80
2013,04,22,03,41,2.80
2013,04,22,03,42,2.80
2013,04,22,03,43,2.80
2013,04,22,03,44,2.80
2013,04,22,03,45,2.80
2013,04,22,03,46,2.80
2013,04,22,03,47,2.70
2013,04,22,03,48,2.70
2013,04,22,03,49,2.70
2013,04,22,03,50,2.60
2013,04,22,03,51,2.60
2013,04,22,03,52,2.60
2013,04,22,03,53,2.50
2013,04,22,03,54,2.50
2013,04,22,03,55,2.50
2013,04,22,03,56,2.50
2013,04,22,03,57,2.40
2013,04,22,03,58,2.40
2013,04,22,03,59,2.40
2013,04,22,04,00,2.40
2013,04,22,04,01,2.40
2013,04,22,04,02,2.40
2013,04,22,04,03,2.40
2013,04,22,04,04,2.30
2013,04,22,04,05,2.30
2013,04,22,04,06,2.30
2013,04,22,04,07,2.30
2013,04,22,04,08,2.30
2013,04,22,04,09,2.30
2013,04,22,04,10,2.20
2013,04,22,04,11,2.20
2013,04,22,04,12,2.20
2013,04,22,04,13,2.20
2013,04,22,04,14,2.20
2013,04,22,04,15,2.20
2013,04,22,04,16,2.20
2013,04,22,04,17,2.20
2013,04,22,04,18,2.20
2013,04,22,04,19,2.10
2013,04,22,04,20,2.10
2013,04,22,04,21,2.10
2013,04,22,04,22,2.10
2013,04,22,04,23,2.10
2013,04,22,04,24,2.10
2013,04,22,04,25,2.00
2013,04,22,04,26,2.00
2013,04,22,04,27,2.00
2013,04,22,04,28,1.90
2013,04,22,04,29,1.90
2013,04,22,04,30,1.90
2013,04,22,04,31,1.90
2013,04,22,04,32,1.90
2013,04,22,04,33,1.90
2013,04,22,04,34,1.90
2013,04,22,04,35,1.90
2013,04,22,04,36,1.90
2013,04,22,04,37,1.80
2013,04,22,04,38,1.80
2013,04,22,04,39,1.80
2013,04,22,04,40,1.80
2013,04,22,04,41,1.80
2013,04,22,04,42,1.80
2013,04,22,04,43,1.80
2013,04,22,04,44,1.80
2013,04,22,04,45,1.80
2013,04,22,04,46,1.80
2013,04,22,04,47,1.80
2013,04,22,04,48,1.80
2013,04,22,04,49,1.70
2013,04,22,04,50,1.70
2013,04,22,04,51,1.70
2013,04,22,04,52,1.60
2013,04,22,04,53,1.60
2013,04,22,04,54,1.60
2013,04,22,04,55,1.60
2013,04,22,04,56,1.60
2013,04,22,04,57,1.50
2013,04,22,04,58,1.50
2013,04,22,04,59,1.50
2013,04,22,05,00,1.50
2013,04,22,05,01,1.50
2013,04,22,05,02,1.50
2013,04,22,05,03,1.50
2013,04,22,05,04,1.60
2013,04,22,05,05,1.60
2013,04,22,05,06,1.50
2013,04,22,05,07,1.60
2013,04,22,05,08,1.50
2013,04,22,05,09,1.50
2013,04,22,05,10,1.50
2013,04,22,05,11,1.50
2013,04,22,05,12,1.40
2013,04,22,05,13,1.40
2013,04,22,05,14,1.40
2013,04,22,05,15,1.40
2013,04,22,05,16,1.40
2013,04,22,05,17,1.40
2013,04,22,05,18,1.40
2013,04,22,05,19,1.40
2013,04,22,05,20,1.40
2013,04,22,05,21,1.40
2013,04,22,05,22,1.40
2013,04,22,05,23,1.40
2013,04,22,05,24,1.50
2013,04,22,05,25,1.50
2013,04,22,05,26,1.50
2013,04,22,05,27,1.50
2013,04,22,05,28,1.60
2013,04,22,05,29,1.60
2013,04,22,05,30,1.60
2013,04,22,05,31,1.60
2013,04,22,05,32,1.60
2013,04,22,05,33,1.50
2013,04,22,05,34,1.50
2013,04,22,05,35,1.40
2013,04,22,05,36,1.40
2013,04,22,05,37,1.30
2013,04,22,05,38,1.30
2013,04,22,05,39,1.30
2013,04,22,05,40,1.20
2013,04,22,05,41,1.20
2013,04,22,05,42,1.20
2013,04,22,05,43,1.20
2013,04,22,05,44,1.20
2013,04,22,05,45,1.20
2013,04,22,05,46,1.10
2013,04,22,05,47,1.10
2013,04,22,05,48,1.10
2013,04,22,05,49,1.10
2013,04,22,05,50,1.10
2013,04,22,05,51,1.10
2013,04,22,05,52,1.10
2013,04,22,05,53,1.10
2013,04,22,05,54,1.10
2013,04,22,05,55,1.10
2013,04,22,05,56,1.10
2013,04,22,05,57,1.00
2013,04,22,05,58,1.00
2013,04,22,05,59,1.10
2013,04,22,06,00,1.10
2013,04,22,06,01,1.10
2013,04,22,06,02,1.10
2013,04,22,06,03,1.20
2013,04,22,06,04,1.20
2013,04,22,06,05,1.20
2013,04,22,06,06,1.20
2013,04,22,06,07,1.10
2013,04,22,06,08,1.10
2013,04,22,06,09,1.10
2013,04,22,06,10,1.10
2013,04,22,06,11,1.10
2013,04,22,06,12,1.00
2013,04,22,06,13,1.00
2013,04,22,06,14,1.00
2013,04,22,06,15,0.90
2013,04,22,06,16,0.90
2013,04,22,06,17,0.90
2013,04,22,06,18,0.90
2013,04,22,06,19,0.90
2013,04,22,06,20,0.90
2013,04,22,06,21,0.90
2013,04,22,06,22,0.90
2013,04,22,06,23,1.00
2013,04,22,06,24,1.00
2013,04,22,06,25,1.10
2013,04,22,06,26,1.10
2013,04,22,06,27,1.10
2013,04,22,06,28,1.10
2013,04,22,06,29,1.10
2013,04,22,06,30,1.00
2013,04,22,06,31,1.00
2013,04,22,06,32,1.00
2013,04,22,06,33,1.00
2013,04,22,06,34,1.00
2013,04,22,06,35,1.10
2013,04,22,06,36,1.10
2013,04,22,06,37,1.20
2013,04,22,06,38,1.20
2013,04,22,06,39,1.20
2013,04,22,06,40,1.20
2013,04,22,06,41,1.20
2013,04,22,06,42,1.20
2013,04,22,06,43,1.20
2013,04,22,06,44,1.20
2013,04,22,06,45,1.10
2013,04,22,06,46,1.10
2013,04,22,06,47,1.10
2013,04,22,06,48,1.00
2013,04,22,06,49,1.10
2013,04,22,06,50,1.10
2013,04,22,06,51,1.10
2013,04,22,06,52,1.10
2013,04,22,06,53,1.10
2013,04,22,06,54,1.10
2013,04,22,06,55,1.10
2013,04,22,06,56,1.10
2013,04,22,06,57,1.10
2013,04,22,06,58,1.10
2013,04,22,06,59,1.10
2013,04,22,07,00,1.10
2013,04,22,07,01,1.10
2013,04,22,07,02,1.10
2013,04,22,07,03,1.00
2013,04,22,07,04,1.00
2013,04,22,07,05,1.00
2013,04,22,07,06,1.00
2013,04,22,07,07,0.90
2013,04,22,07,08,0.90
2013,04,22,07,09,0.90
2013,04,22,07,10,0.90
2013,04,22,07,11,0.90
2013,04,22,07,12,0.90
2013,04,22,07,13,0.90
2013,04,22,07,14,0.90
2013,04,22,07,15,0.90
2013,04,22,07,16,0.90
2013,04,22,07,17,0.90
2013,04,22,07,18,0.90
2013,04,22,07,19,0.90
2013,04,22,07,20,0.90
2013,04,22,07,21,0.90
2013,04,22,07,22,0.90
2013,04,22,07,23,0.90
2013,04,22,07,24,0.90
2013,04,22,07,25,0.90
2013,04,22,07,26,0.90
2013,04,22,07,27,0.90
2013,04,22,07,28,0.90
2013,04,22,07,29,0.90
2013,04,22,07,30,0.90
2013,04,22,07,31,0.90
2013,04,22,07,32,0.90
2013,04,22,07,33,0.90
2013,04,22,07,34,0.90
2013,04,22,07,35,0.90
2013,04,22,07,36,0.90
2013,04,22,07,37,0.90
2013,04,22,07,38,0.90
2013,04,22,07,39,0.90
2013,04,22,07,40,0.90
2013,04,22,07,41,0.90
2013,04,22,07,42,0.90
2013,04,22,07,43,0.90
2013,04,22,07,44,0.90
2013,04,22,07,45,0.90
2013,04,22,07,46,0.90
2013,04,22,07,47,1.00
2013,04,22,07,48,1.00
2013,04,22,07,49,1.00
2013,04,22,07,50,1.00
2013,04,22,07,51,1.00
2013,04,22,07,52,1.00
2013,04,22,07,53,1.00
2013,04,22,07,54,1.00
2013,04,22,07,55,1.10
2013,04,22,07,56,1.10
2013,04,22,07,57,1.10
2013,04,22,07,58,1.10
2013,04,22,07,59,1.10
2013,04,22,08,00,1.10
2013,04,22,08,01,1.10
2013,04,22,08,02,1.10
2013,04,22,08,03,1.10
2013,04,22,08,04,1.10
2013,04,22,08,05,1.10
2013,04,22,08,06,1.10
2013,04,22,08,07,1.10
2013,04,22,08,08,1.10
2013,04,22,08,09,1.10
2013,04,22,08,10,1.10
2013,04,22,08,11,1.10
2013,04,22,08,12,1.10
2013,04,22,08,13,1.10
2013,04,22,08,14,1.10
2013,04,22,08,15,1.10
2013,04,22,08,16,1.10
2013,04,22,08,17,1.10
2013,04,22,08,18,1.10
2013,04,22,08,19,1.10
2013,04,22,08,20,1.10
2013,04,22,08,21,1.20
2013,04,22,08,22,1.20
2013,04,22,08,23,1.20
2013,04,22,08,24,1.20
2013,04,22,08,25,1.30
2013,04,22,08,26,1.30
2013,04,22,08,27,1.40
2013,04,22,08,28,1.40
2013,04,22,08,29,1.40
2013,04,22,08,30,1.40
2013,04,22,08,31,1.50
2013,04,22,08,32,1.50
2013,04,22,08,33,1.50
2013,04,22,08,34,1.50
2013,04,22,08,35,1.40
2013,04,22,08,36,1.40
2013,04,22,08,37,1.40
2013,04,22,08,38,1.40
2013,04,22,08,39,1.40
2013,04,22,08,40,1.50
2013,04,22,08,41,1.50
2013,04,22,08,42,1.50
2013,04,22,08,43,1.50
2013,04,22,08,44,1.50
2013,04,22,08,45,1.50
2013,04,22,08,46,1.50
2013,04,22,08,47,1.60
2013,04,22,08,48,1.60
2013,04,22,08,49,1.60
2013,04,22,08,50,1.60
2013,04,22,08,51,1.60
2013,04,22,08,52,1.60
2013,04,22,08,53,1.60
2013,04,22,08,54,1.60
2013,04,22,08,55,1.60
2013,04,22,08,56,1.60
2013,04,22,08,57,1.70
2013,04,22,08,58,1.70
2013,04,22,08,59,1.70
2013,04,22,09,00,1.70
2013,04,22,09,01,1.70
2013,04,22,09,02,1.70
2013,04,22,09,03,1.70
2013,04,22,09,04,1.70
2013,04,22,09,05,1.70
2013,04,22,09,06,1.70
2013,04,22,09,07,1.70
2013,04,22,09,08,1.70
2013,04,22,09,09,1.80
2013,04,22,09,10,1.80
2013,04,22,09,11,1.90
2013,04,22,09,12,1.90
2013,04,22,09,13,1.90
2013,04,22,09,14,1.90
2013,04,22,09,15,2.00
2013,04,22,09,16,2.00
2013,04,22,09,17,2.10
2013,04,22,09,18,2.10
2013,04,22,09,19,2.10
2013,04,22,09,20,2.20
2013,04,22,09,21,2.20
2013,04,22,09,22,2.20
2013,04,22,09,23,2.30
2013,04,22,09,24,2.30
2013,04,22,09,25,2.30
2013,04,22,09,26,2.40
2013,04,22,09,27,2.40
2013,04,22,09,28,2.50
2013,04,22,09,29,2.50
2013,04,22,09,30,2.60
2013,04,22,09,31,2.60
2013,04,22,09,32,2.70
2013,04,22,09,33,2.70
2013,04,22,09,34,2.70
2013,04,22,09,35,2.80
2013,04,22,09,36,2.80
2013,04,22,09,37,2.90
2013,04,22,09,38,2.90
2013,04,22,09,39,2.90
2013,04,22,09,40,2.90
2013,04,22,09,41,3.00
2013,04,22,09,42,3.00
2013,04,22,09,43,3.10
2013,04,22,09,44,3.10
2013,04,22,09,45,3.20
2013,04,22,09,46,3.20
2013,04,22,09,47,3.30
2013,04,22,09,48,3.40
2013,04,22,09,49,3.40
2013,04,22,09,50,3.50
2013,04,22,09,51,3.60
2013,04,22,09,52,3.70
2013,04,22,09,53,3.80
2013,04,22,09,54,3.80
2013,04,22,09,55,4.00
2013,04,22,09,56,4.00
2013,04,22,09,57,4.10
2013,04,22,09,58,4.20
2013,04,22,09,59,4.30
2013,04,22,10,00,4.40
2013,04,22,10,01,4.50
2013,04,22,10,02,4.60
2013,04,22,10,03,4.70
2013,04,22,10,04,4.80
2013,04,22,10,05,5.00
2013,04,22,10,06,5.10
2013,04,22,10,07,5.20
2013,04,22,10,08,5.30
2013,04,22,10,09,5.40
2013,04,22,10,10,5.50
2013,04,22,10,11,5.60
2013,04,22,10,12,5.80
2013,04,22,10,13,5.80
2013,04,22,10,14,5.90
2013,04,22,10,15,6.00
2013,04,22,10,16,6.10
2013,04,22,10,17,6.20
2013,04,22,10,18,6.30
2013,04,22,10,19,6.40
2013,04,22,10,20,6.50
2013,04,22,10,21,6.60
2013,04,22,10,22,6.70
2013,04,22,10,23,6.80
2013,04,22,10,24,6.90
2013,04,22,10,25,7.00
2013,04,22,10,26,7.10
2013,04,22,10,27,7.20
2013,04,22,10,28,7.20
2013,04,22,10,29,7.30
2013,04,22,10,30,7.40
2013,04,22,10,31,7.50
2013,04,22,10,32,7.60
2013,04,22,10,33,7.70
2013,04,22,10,34,7.80
2013,04,22,10,35,7.90
2013,04,22,10,36,8.00
2013,04,22,10,37,8.10
2013,04,22,10,38,8.20
2013,04,22,10,39,8.30
2013,04,22,10,40,8.40
2013,04,22,10,41,8.40
2013,04,22,10,42,8.50
2013,04,22,10,43,8.60
2013,04,22,10,44,8.70
2013,04,22,10,45,8.80
2013,04,22,10,46,8.80
2013,04,22,10,47,8.90
2013,04,22,10,48,9.00
2013,04,22,10,49,9.10
2013,04,22,10,50,9.20
2013,04,22,10,51,9.20
2013,04,22,10,52,9.30
2013,04,22,10,53,9.30
2013,04,22,10,54,9.40
2013,04,22,10,55,9.40
2013,04,22,10,56,9.40
2013,04,22,10,57,9.40
2013,04,22,10,58,9.40
2013,04,22,10,59,9.40
2013,04,22,11,00,9.50
2013,04,22,11,01,9.60
2013,04,22,11,02,9.60
2013,04,22,11,03,9.60
2013,04,22,11,04,9.70
2013,04,22,11,05,9.70
2013,04,22,11,06,9.80
2013,04,22,11,07,9.80
2013,04,22,11,08,9.90
2013,04,22,11,09,9.90
2013,04,22,11,10,10.00
2013,04,22,11,11,10.10
2013,04,22,11,12,10.20
2013,04,22,11,13,10.30
2013,04,22,11,14,10.40
2013,04,22,11,15,10.50
2013,04,22,11,16,10.60
2013,04,22,11,17,10.70
2013,04,22,11,18,10.80
2013,04,22,11,19,10.90
2013,04,22,11,20,11.00
2013,04,22,11,21,11.10
2013,04,22,11,22,11.20
2013,04,22,11,23,11.20
2013,04,22,11,24,11.30
2013,04,22,11,25,11.40
2013,04,22,11,26,11.50
2013,04,22,11,27,11.50
2013,04,22,11,28,11.60
2013,04,22,11,29,11.60
2013,04,22,11,30,11.70
2013,04,22,11,31,11.70
2013,04,22,11,32,11.80
2013,04,22,11,33,11.80
2013,04,22,11,34,11.80
2013,04,22,11,35,11.90
2013,04,22,11,36,11.90
2013,04,22,11,37,12.00
2013,04,22,11,38,12.00
2013,04,22,11,39,12.10
2013,04,22,11,40,12.10
2013,04,22,11,41,12.20
2013,04,22,11,42,12.30
2013,04,22,11,43,12.30
2013,04,22,11,44,12.30
2013,04,22,11,45,12.40
2013,04,22,11,46,12.40
2013,04,22,11,47,12.40
2013,04,22,11,48,12.40
2013,04,22,11,49,12.50
2013,04,22,11,50,12.50
2013,04,22,11,51,12.60
2013,04,22,11,52,12.60
2013,04,22,11,53,12.70
2013,04,22,11,54,12.80
2013,04,22,11,55,12.90
2013,04,22,11,56,13.00
2013,04,22,11,57,13.10
2013,04,22,11,58,13.20
2013,04,22,11,59,13.30
2013,04,22,12,00,13.30
2013,04,22,12,01,13.40
2013,04,22,12,02,13.40
2013,04,22,12,03,13.40
2013,04,22,12,04,13.40
2013,04,22,12,05,13.50
2013,04,22,12,06,13.50
2013,04,22,12,07,13.40
2013,04,22,12,08,13.40
2013,04,22,12,09,13.40
2013,04,22,12,10,13.50
2013,04,22,12,11,13.50
2013,04,22,12,12,13.60
2013,04,22,12,13,13.70
2013,04,22,12,14,13.70
2013,04,22,12,15,13.80
2013,04,22,12,16,13.90
2013,04,22,12,17,13.90
2013,04,22,12,18,14.00
2013,04,22,12,19,14.00
2013,04,22,12,20,14.10
2013,04,22,12,21,14.10
2013,04,22,12,22,14.10
2013,04,22,12,23,14.10
2013,04,22,12,24,14.10
2013,04,22,12,25,14.00
2013,04,22,12,26,14.00
2013,04,22,12,27,14.00
2013,04,22,12,28,14.10
2013,04,22,12,29,14.10
2013,04,22,12,30,14.20
2013,04,22,12,31,14.30
2013,04,22,12,32,14.30
2013,04,22,12,33,14.40
2013,04,22,12,34,14.50
2013,04,22,12,35,14.50
2013,04,22,12,36,14.50
2013,04,22,12,37,14.50
2013,04,22,12,38,14.50
2013,04,22,12,39,14.60
2013,04,22,12,40,14.60
2013,04,22,12,41,14.60
2013,04,22,12,42,14.70
2013,04,22,12,43,14.80
2013,04,22,12,44,14.80
2013,04,22,12,45,14.90
2013,04,22,12,46,15.00
2013,04,22,12,47,15.10
2013,04,22,12,48,15.10
2013,04,22,12,49,15.20
2013,04,22,12,50,15.30
2013,04,22,12,51,15.30
2013,04,22,12,52,15.40
2013,04,22,12,53,15.40
2013,04,22,12,54,15.50
2013,04,22,12,55,15.50
2013,04,22,12,56,15.50
2013,04,22,12,57,15.50
2013,04,22,12,58,15.50
2013,04,22,12,59,15.60
2013,04,22,13,00,15.60
2013,04,22,13,01,15.70
2013,04,22,13,02,15.70
2013,04,22,13,03,15.60
2013,04,22,13,04,15.50
2013,04,22,13,05,15.50
2013,04,22,13,06,15.40
2013,04,22,13,07,15.40
2013,04,22,13,08,15.50
2013,04,22,13,09,15.50
2013,04,22,13,10,15.60
2013,04,22,13,11,15.70
2013,04,22,13,12,15.80
2013,04,22,13,13,15.90
2013,04,22,13,14,16.00
2013,04,22,13,15,16.00
2013,04,22,13,16,16.10
2013,04,22,13,17,16.10
2013,04,22,13,18,16.20
2013,04,22,13,19,16.20
2013,04,22,13,20,16.30
2013,04,22,13,21,16.40
2013,04,22,13,22,16.40
2013,04,22,13,23,16.50
2013,04,22,13,24,16.60
2013,04,22,13,25,16.60
2013,04,22,13,26,16.70
2013,04,22,13,27,16.60
2013,04,22,13,28,16.50
2013,04,22,13,29,16.40
2013,04,22,13,30,16.30
2013,04,22,13,31,16.20
2013,04,22,13,32,16.20
2013,04,22,13,33,16.20
2013,04,22,13,34,16.20
2013,04,22,13,35,16.20
2013,04,22,13,36,16.30
2013,04,22,13,37,16.40
2013,04,22,13,38,16.50
2013,04,22,13,39,16.50
2013,04,22,13,40,16.60
2013,04,22,13,41,16.70
2013,04,22,13,42,16.70
2013,04,22,13,43,16.70
2013,04,22,13,44,16.70
2013,04,22,13,45,16.70
2013,04,22,13,46,16.60
2013,04,22,13,47,16.60
2013,04,22,13,48,16.60
2013,04,22,13,49,16.60
2013,04,22,13,50,16.60
2013,04,22,13,51,16.60
2013,04,22,13,52,16.60
2013,04,22,13,53,16.60
2013,04,22,13,54,16.60
2013,04,22,13,55,16.60
2013,04,22,13,56,16.60
2013,04,22,13,57,16.60
2013,04,22,13,58,16.50
2013,04,22,13,59,16.50
2013,04,22,14,00,16.50
2013,04,22,14,01,16.50
2013,04,22,14,02,16.50
2013,04,22,14,03,16.40
2013,04,22,14,04,16.40
2013,04,22,14,05,16.30
2013,04,22,14,06,16.30
2013,04,22,14,07,16.30
2013,04,22,14,08,16.30
2013,04,22,14,09,16.30
2013,04,22,14,10,16.30
2013,04,22,14,11,16.30
2013,04,22,14,12,16.30
2013,04,22,14,13,16.30
2013,04,22,14,14,16.30
2013,04,22,14,15,16.30
2013,04,22,14,16,16.30
2013,04,22,14,17,16.40
2013,04,22,14,18,16.40
2013,04,22,14,19,16.40
2013,04,22,14,20,16.40
2013,04,22,14,21,16.30
2013,04,22,14,22,16.30
2013,04,22,14,23,16.30
2013,04,22,14,24,16.30
2013,04,22,14,25,16.30
2013,04,22,14,26,16.30
2013,04,22,14,27,16.30
2013,04,22,14,28,16.20
2013,04,22,14,29,16.20
2013,04,22,14,30,16.20
2013,04,22,14,31,16.20
2013,04,22,14,32,16.20
2013,04,22,14,33,16.20
2013,04,22,14,34,16.20
2013,04,22,14,35,16.20
2013,04,22,14,36,16.10
2013,04,22,14,37,16.10
2013,04,22,14,38,16.20
2013,04,22,14,39,16.20
2013,04,22,14,40,16.20
2013,04,22,14,41,16.10
2013,04,22,14,42,16.10
2013,04,22,14,43,16.10
2013,04,22,14,44,16.10
2013,04,22,14,45,16.10
2013,04,22,14,46,16.10
2013,04,22,14,47,16.10
2013,04,22,14,48,16.10
2013,04,22,14,49,16.10
2013,04,22,14,50,16.00
2013,04,22,14,51,16.00
2013,04,22,14,52,16.00
2013,04,22,14,53,16.00
2013,04,22,14,54,16.00
2013,04,22,14,55,16.00
2013,04,22,14,56,16.00
2013,04,22,14,57,16.00
2013,04,22,14,58,15.90
2013,04,22,14,59,15.90
2013,04,22,15,00,15.90
2013,04,22,15,01,15.90
2013,04,22,15,02,16.00
2013,04,22,15,03,16.00
2013,04,22,15,04,16.00
2013,04,22,15,05,15.90
2013,04,22,15,06,15.90
2013,04,22,15,07,16.00
2013,04,22,15,08,16.00
2013,04,22,15,09,15.90
2013,04,22,15,10,15.90
2013,04,22,15,11,15.90
2013,04,22,15,12,15.90
2013,04,22,15,13,15.80
2013,04,22,15,14,15.80
2013,04,22,15,15,15.80
2013,04,22,15,16,15.70
2013,04,22,15,17,15.70
2013,04,22,15,18,15.70
2013,04,22,15,19,15.70
2013,04,22,15,20,15.70
2013,04,22,15,21,15.70
2013,04,22,15,22,15.70
2013,04,22,15,23,15.70
2013,04,22,15,24,15.70
2013,04,22,15,25,15.70
2013,04,22,15,26,15.70
2013,04,22,15,27,15.70
2013,04,22,15,28,15.70
2013,04,22,15,29,15.70
2013,04,22,15,30,15.70
2013,04,22,15,31,15.70
2013,04,22,15,32,15.70
2013,04,22,15,33,15.70
2013,04,22,15,34,15.70
2013,04,22,15,35,15.70
2013,04,22,15,36,15.70
2013,04,22,15,37,15.70
2013,04,22,15,38,15.80
2013,04,22,15,39,15.80
2013,04,22,15,40,15.70
2013,04,22,15,41,15.70
2013,04,22,15,42,15.70
2013,04,22,15,43,15.70
2013,04,22,15,44,15.70
2013,04,22,15,45,15.70
2013,04,22,15,46,15.70
2013,04,22,15,47,15.70
2013,04,22,15,48,15.70
2013,04,22,15,49,15.70
2013,04,22,15,50,15.70
2013,04,22,15,51,15.70
2013,04,22,15,52,15.60
2013,04,22,15,53,15.60
2013,04,22,15,54,15.60
2013,04,22,15,55,15.60
2013,04,22,15,56,15.60
2013,04,22,15,57,15.60
2013,04,22,15,58,15.70
2013,04,22,15,59,15.70
2013,04,22,16,00,15.70
2013,04,22,16,01,15.70
2013,04,22,16,02,15.70
2013,04,22,16,03,15.70
2013,04,22,16,04,15.70
2013,04,22,16,05,15.70
2013,04,22,16,06,15.70
2013,04,22,16,07,15.80
2013,04,22,16,08,15.70
2013,04,22,16,09,15.80
2013,04,22,16,10,15.80
2013,04,22,16,11,15.80
2013,04,22,16,12,15.80
2013,04,22,16,13,15.80
2013,04,22,16,14,15.80
2013,04,22,16,15,15.80
2013,04,22,16,16,15.80
2013,04,22,16,17,15.80
2013,04,22,16,18,15.90
2013,04,22,16,19,15.90
2013,04,22,16,20,15.90
2013,04,22,16,21,15.90
2013,04,22,16,22,15.90
2013,04,22,16,23,15.90
2013,04,22,16,24,15.90
2013,04,22,16,25,15.90
2013,04,22,16,26,16.00
2013,04,22,16,27,16.00
2013,04,22,16,28,16.00
2013,04,22,16,29,16.00
2013,04,22,16,30,16.00
2013,04,22,16,31,16.00
2013,04,22,16,32,16.00
2013,04,22,16,33,16.00
2013,04,22,16,34,15.90
2013,04,22,16,35,15.90
2013,04,22,16,36,15.90
2013,04,22,16,37,15.90
2013,04,22,16,38,15.80
2013,04,22,16,39,15.80
2013,04,22,16,40,15.80
2013,04,22,16,41,15.80
2013,04,22,16,42,15.70
2013,04,22,16,43,15.70
2013,04,22,16,44,15.70
2013,04,22,16,45,15.70
2013,04,22,16,46,15.70
2013,04,22,16,47,15.70
2013,04,22,16,48,15.70
2013,04,22,16,49,15.70
2013,04,22,16,50,15.70
2013,04,22,16,51,15.70
2013,04,22,16,52,15.70
2013,04,22,16,53,15.60
2013,04,22,16,54,15.60
2013,04,22,16,55,15.70
2013,04,22,16,56,15.70
2013,04,22,16,57,15.70
2013,04,22,16,58,15.70
2013,04,22,16,59,15.70
2013,04,22,17,00,15.70
2013,04,22,17,01,15.70
2013,04,22,17,02,15.70
2013,04,22,17,03,15.60
2013,04,22,17,04,15.60
2013,04,22,17,05,15.60
2013,04,22,17,06,15.60
2013,04,22,17,07,15.60
2013,04,22,17,08,15.60
2013,04,22,17,09,15.60
2013,04,22,17,10,15.60
2013,04,22,17,11,15.70
2013,04,22,17,12,15.70
2013,04,22,17,13,15.70
2013,04,22,17,14,15.70
2013,04,22,17,15,15.70
2013,04,22,17,16,15.70
2013,04,22,17,17,15.70
2013,04,22,17,18,15.70
2013,04,22,17,19,15.60
2013,04,22,17,20,15.60
2013,04,22,17,21,15.60
2013,04,22,17,22,15.60
2013,04,22,17,23,15.60
2013,04,22,17,24,15.50
2013,04,22,17,25,15.50
2013,04,22,17,26,15.50
2013,04,22,17,27,15.50
2013,04,22,17,28,15.50
2013,04,22,17,29,15.50
2013,04,22,17,30,15.50
2013,04,22,17,31,15.50
2013,04,22,17,32,15.50
2013,04,22,17,33,15.50
2013,04,22,17,34,15.50
2013,04,22,17,35,15.40
2013,04,22,17,36,15.40
2013,04,22,17,37,15.30
2013,04,22,17,38,15.30
2013,04,22,17,39,15.30
2013,04,22,17,40,15.30
2013,04,22,17,41,15.30
2013,04,22,17,42,15.30
2013,04,22,17,43,15.30
2013,04,22,17,44,15.30
2013,04,22,17,45,15.30
2013,04,22,17,46,15.30
2013,04,22,17,47,15.30
2013,04,22,17,48,15.30